Home   Weather   Pensacola   Past weeks
Flag for USA

Past Weather in Pensacola, Florida, USA — Yesterday and Last 2 Weeks

Now
74 °F

Sunny.


Feels Like: 73 °F
Forecast: 95 / 75 °F
Wind: 6 mph from North

Location: Pensacola Regional Airport

Current Time: Jun 26, 2019 at 7:09:49 am

Latest Report: Jun 26, 2019 at 5:53 am


Visibility: 10 mi

Pressure: 30.14 "Hg

Humidity: 85%

Dew Point: 69 °F

Location of PensacolaLocation

Past Weather in Pensacola — Graph

°F

Pensacola Temperature Yesterday

Maximum temperature yesterday: 95 °F (at 2:53 pm)
Minimum temperature yesterday: 80 °F (at 11:53 pm)
Average temperature yesterday: 86 °F

High & Low Weather Summary for the Past Weeks

 TemperatureHumidityPressure
High95 °F (Jun 25, 2:53 pm)100% (Jun 17, 2:53 am)30.14 "Hg (Jun 17, 2:53 am)
Low69 °F (Jun 13, 5:53 am)33% (Jun 14, 2:53 pm)29.85 "Hg (Jun 19, 5:53 pm)
Average83 °F76%30.00 "Hg
* Reported Jun 11 5:53 am — Jun 26 5:53 am, Pensacola. Weather by CustomWeather, © 2019

Note: Actual official high and low records may vary slightly from our data, if they occured in-between our weather recording intervals... More about our weather records

Advertising

Pensacola Weather History for the Previous 24 Hours

Scroll right to see more
 ConditionsComfort  
Time TempWeatherWind HumidityBarometerVisibility
5:53 am
Wed, Jun 26
74 °FSunny.6 mph85%30.14 "Hg10 mi
4:53 am75 °FSunny.3 mph85%30.13 "Hg10 mi
3:53 am76 °FMild.5 mph82%30.11 "Hg10 mi
2:53 am76 °FClear.No wind82%30.10 "Hg10 mi
1:53 am78 °FClear.3 mph79%30.11 "Hg10 mi
12:53 am80 °FClear.3 mph71%30.11 "Hg10 mi
11:53 pm
Tue, Jun 25
80 °FClear.6 mph76%30.13 "Hg10 mi
10:53 pm83 °FPassing clouds.15 mph68%30.13 "Hg10 mi
9:53 pm83 °FClear.5 mph63%30.11 "Hg10 mi
8:53 pm83 °FClear.5 mph59%30.09 "Hg10 mi
7:53 pm83 °FClear.7 mph55%30.06 "Hg10 mi
6:53 pm85 °FSunny.5 mph50%30.03 "Hg10 mi
5:53 pm86 °FSunny.13 mph45%30.05 "Hg10 mi
5:39 pm88 °FSunny.16 mph42%30.05 "Hg10 mi
4:53 pm95 °FSunny.10 mph43%30.03 "Hg10 mi
3:53 pm94 °FSunny.5 mph48%30.03 "Hg10 mi
2:53 pm95 °FPassing clouds.6 mph49%30.04 "Hg10 mi
1:53 pm94 °FPassing clouds.7 mph49%30.06 "Hg10 mi
12:53 pm94 °FPassing clouds.3 mph51%30.06 "Hg10 mi
11:53 am93 °FSunny.6 mph56%30.07 "Hg10 mi
10:53 am91 °FScattered clouds.9 mph64%30.08 "Hg10 mi
9:53 am89 °FSunny.7 mph75%30.06 "Hg9 mi
8:53 am84 °FSunny.9 mph91%30.07 "Hg8 mi
7:53 am84 °FSunny.8 mph91%30.06 "Hg7 mi
Weather by CustomWeather, © 2019

See weather overview